Regional Weather Roundup
Issued by NWS

Home | Current Version | Previous Version | Graphics & Text | Print | Product List | Glossary On
Versions: 1 2 3 4 5 6 7 8 9 10 11 12 13 14 15 16 17 18 19 20 21 22 23 24 25 26 27 28 29 30 31 32 33 34 35 36 37 38 39 40 41 42 43 44 45 46 47 48 49 50
000
ASUS43 KLOT 292021
RWRIL

ILLINOIS REGIONAL WEATHER ROUNDUP
NATIONAL WEATHER SERVICE CHICAGO/ROMEOVILLE IL
300 PM CDT FRI MAY 29 2015

NOTE: "FAIR" INDICATES FEW OR NO CLOUDS BELOW 12,000 FEET WITH NO
SIGNIFICANT WEATHER AND/OR OBSTRUCTIONS TO VISIBILITY.

* THESE STATIONS ARE NOT UNDER NWS QUALITY CONTROL. THEY ALSO MAY NOT
  REPORT WEATHER SUCH AS PRECIPITATION OR FOG.

ILZ001-002-007-009-015-016-024-292100-
NORTHWEST ILLINOIS

CITY           SKY/WX    TMP DP  RH WIND       PRES   REMARKS
MOLINE         MOSUNNY   81  67  62 SW14G22   29.92F HX  83
STERLING*      PTSUNNY   81  66  61 W15G23    29.93F HX  83
SAVANNA*       PTSUNNY   80  66  62 S12       29.91F HX  82
$$

ILZ003-004-008-010-011-017-018-292100-
NORTH CENTRAL ILLINOIS

CITY           SKY/WX    TMP DP  RH WIND       PRES   REMARKS
ROCKFORD       LGT RAIN  76  66  71 S13       29.93F
FREEPORT*      PTSUNNY   74  67  77 SW13      29.94F
ROCHELLE*      CLOUDY    75  66  74 SW18G24   29.94S
DE KALB*       CLOUDY    76  64  64 SW20      29.94F
PERU*          PTSUNNY   80  64  57 SW15G24   29.95S HX  82
$$

ILZ005-006-012>014-019>023-292100-
NORTHEAST ILLINOIS

CITY           SKY/WX    TMP DP  RH WIND       PRES   REMARKS
CHICAGO-OHARE  LGT RAIN  77  66  68 S18G25    29.93F
CHICAGO-MIDWAY PTSUNNY   82  68  62 S13       29.94F HX  85
AURORA         PTSUNNY   80  64  58 S18       29.93F HX  82
LANSING*       PTSUNNY   81  63  54 S16G25    29.96S HX  82
JOLIET*        CLOUDY    81  67  61 S13G20    29.94F HX  83
WAUKEGAN       CLOUDY    70  65  84 SE9       29.93F
DUPAGE AIRPORT PTSUNNY   81  66  60 S20       29.92F HX  83
KANKAKEE*      PTSUNNY   82  68  63 S13       29.97F HX  85
WHEELING       PTSUNNY   83  65  54 S17G24    29.94F HX  85
MORRIS*        LGT RAIN  75  69  79 SW10      29.93F
ROMEOVILLE*    CLOUDY    79  63  58 SW22G28   29.94F HX  80
NORTHERLY ISL    N/A     67  64  90 SE3         N/A
$$

LMZ740>746-292100-
SOUTHERN LAKE MICHIGAN

STATION/POSITION SKY/WX   TEMP    WIND        PRES    VSBY  WAVE
                          AIR SEA DIR/SP/G                  HT/PER
                          (F)     (DEG/KT/KT) (MB)    (MI)  (FT/S)
SOUTHERN BUOY              49 38  170/  8/ 10 1015.2F         0
HARRISON CRIB              72     150/  8/ 10   N/A
BURNHAM HARBOR             70     150/  1/  8   N/A
CALUMET HARBOR             74     230/  5/  7   N/A
BURNS HARBOR               80     210/ 17/ 24 1015.6F
MICHIGAN CITY              80     170/ 12/ 17   N/A
MICHIGAN CITY 6N           62 57   10/  6/  8   N/A           1
ST. JOSEPH                 61 58  130/  4/  6   N/A           1/ 2
$$

ILZ025>027-034>036-040-047-049-050-058-095>099-292100-
WEST-CENTRAL ILLINOIS

CITY           SKY/WX    TMP DP  RH WIND       PRES   REMARKS
QUINCY         CLOUDY    77  66  68 SW15      30.00R
GALESBURG*     PTSUNNY   78  65  64 SW10G18   29.96S HX  80
MACOMB*        PTSUNNY   80  64  59 SW17G23   29.98F HX  81
JACKSONVILLE*  CLOUDY    83  69  60 SW9G17    29.98S HX  87
PITTSFIELD*    PTSUNNY   80  64  57 W12G18    30.01R HX  82
$$

ILZ028>032-037-038-041>044-048-051>054-059>061-292100-
CENTRAL ILLINOIS

CITY           SKY/WX    TMP DP  RH WIND       PRES   REMARKS
PONTIAC        PTSUNNY   84  67  56 S22G28    29.96F HX  86
BLOOMINGTON    PTSUNNY   82  68  62 S17       29.98F HX  85
DECATUR        MOSUNNY   83  65  54 S14       29.99F HX  85
PEORIA         PTSUNNY   83  64  52 SW12      29.96S HX  84
LACON*         PTSUNNY   81  64  57 SW12G17   29.94S HX  82
LINCOLN*       PTSUNNY   85  66  52 S13       29.93F HX  87
SPRINGFIELD    PTSUNNY   85  67  54 SW13G20   29.97F HX  87
TAYLORVILLE    PTSUNNY   79  68  69 S13G21    30.00F HX  81
$$

ILZ033-039-045-046-055>057-062-063-292100-
EAST-CENTRAL ILLINOIS

CITY           SKY/WX    TMP DP  RH WIND       PRES   REMARKS
CHAMPAIGN      MOSUNNY   86  62  44 S17G29    29.99F HX  86
DANVILLE*      MOSUNNY   84  63  48 SW14G22   29.98F HX  85
RANTOUL*       PTSUNNY   86  64  48 SW16G24   29.99F HX  87
MATTOON        LGT RAIN  75  67  76 SW6       30.01
PARIS*         PTSUNNY   86  64  48 S16G23    30.02F HX  87
$$

ILZ079-100>102-292100-
SOUTHWEST ILLINOIS

CITY           SKY/WX    TMP DP  RH WIND       PRES   REMARKS
ALTON          PTSUNNY   72  72 100 SE9       30.01S
BELLEVILLE     TSTM      73  73 100 W5        30.00F
CAHOKIA*       PTSUNNY   76  69  79 S6        30.00F
SPARTA*        PTSUNNY   82  69  65 SE10G16   30.00F HX  85
$$

ILZ064>066-069>071-074>076-080>082-084>086-088>090-092>094-292100-
SOUTH-CENTRAL ILLINOIS

CITY           SKY/WX    TMP DP  RH WIND       PRES   REMARKS
CARBONDALE     PTSUNNY   84  67  56 S13       30.01F HX  86
CAIRO*         PTSUNNY   83  67  59 SE13      30.03F HX  85
EFFINGHAM*     PTSUNNY   80  64  59 CALM      30.03F HX  81
MARION         PTSUNNY   84  68  58 S14       30.03F HX  87
MT. VERNON     PTSUNNY   84  66  54 S14       30.02S HX  86
CENTRALIA*     PTSUNNY   87  64  46 S12       30.01S HX  88
SALEM*         PTSUNNY   87  65  48 S9        30.01S HX  88
METROPOLIS*    MOSUNNY   84  69  60 S7        30.03F HX  87
$$

ILZ067-068-072-073-078-083-087-091-292100-
SOUTHEAST ILLINOIS

CITY           SKY/WX    TMP DP  RH WIND       PRES   REMARKS
LAWRENCEVILLE  MOSUNNY   86  64  47 S13G21    30.03F HX  87
FLORA*         SUNNY     85  64  48 S13       30.02S HX  87
FAIRFIELD*     PTSUNNY   85  66  53 SE10      30.01F HX  87
HARRISBURG*    MOSUNNY   84  66  53 S10       30.04F HX  86
ROBINSON*      MOSUNNY   85  64  48 S15       30.03F HX  87
CARMI*         MOSUNNY   84  59  42 SE9       30.03F HX  84
$$

ABBREVIATIONS USED IN REMARKS
   TC - TEMPERATURE IN CELSIUS
  WCI - WIND CHILL INDEX
   HX - HEAT INDEX
  VSB - VISIBILITY
$$



USA.gov is the U.S. government's official web portal to all federal, state and local government web resources and services.